When you browse on this site, cookies collect data to enhance your experience and personalize the content and advertising you see.
Visit our Privacy Policy to learn more. By continuing to use the site, you agree to this use of cookies and data.
  • In Hungary
  • List of Countries
  • For 7 days
  • Water Temperature
  • Weather Map
  • News
  • Weather Widgets
  • user-avatar
    Login

    Hourly Weather Pechische

    Today, 21 January, Tuesday

    Time Temperature Precipitation Wind Pressure Humidity
    00:00 -3°C° 0 mm 6 mps 754 mmHg 85%
    01:00 -3°C° 0 mm 6 mps 754 mmHg 85%
    02:00 -3°C° 0 mm 6 mps 753 mmHg 84%
    03:00 -2°C° 0 mm 6 mps 752 mmHg 85%
    04:00 -2°C° 0 mm 6 mps 751 mmHg 85%
    05:00 -2°C° 0 mm 7 mps 751 mmHg 86%
    06:00 -2°C° 0 mm 7 mps 750 mmHg 86%
    07:00 -1°C° 0 mm 7 mps 749 mmHg 86%
    08:00 -1°C° 0 mm 7 mps 748 mmHg 87%
    09:00 -1°C° 0 mm 7 mps 748 mmHg 87%
    10:00 0°C° 0 mm 7 mps 747 mmHg 88%
    11:00 0°C° 0 mm 7 mps 747 mmHg 88%
    12:00 0°C° 0 mm 7 mps 746 mmHg 89%
    13:00 +2°C° 0 mm 7 mps 746 mmHg 91%
    14:00 +2°C° 0 mm 7 mps 745 mmHg 92%
    15:00 +2°C° 0 mm 7 mps 744 mmHg 91%
    16:00 +1°C° 0 mm 8 mps 743 mmHg 91%
    17:00 +2°C° 0 mm 8 mps 743 mmHg 90%
    18:00 +2°C° 0 mm 9 mps 742 mmHg 89%
    19:00 +2°C° 0 mm 9 mps 742 mmHg 88%
    20:00 +2°C° 0 mm 9 mps 742 mmHg 86%
    21:00 +2°C° 0 mm 8 mps 742 mmHg 87%
    22:00 +2°C° 0 mm 8 mps 741 mmHg 87%
    23:00 +2°C° 0 mm 8 mps 741 mmHg 87%

    Tomorrow, 22 January, Wednesday

    Time Temperature Precipitation Wind Pressure Humidity
    00:00 +2°C° 0 mm 7 mps 741 mmHg 85%
    01:00 +1°C° 0 mm 6 mps 741 mmHg 82%
    02:00 -2°C° 0 mm 6 mps 741 mmHg 79%
    03:00 -2°C° 0 mm 6 mps 741 mmHg 80%
    04:00 -2°C° 0 mm 6 mps 740 mmHg 81%
    05:00 -2°C° 0 mm 6 mps 739 mmHg 81%
    06:00 -2°C° 0 mm 5 mps 739 mmHg 80%
    07:00 -2°C° 0 mm 4 mps 738 mmHg 79%
    08:00 -2°C° 0 mm 4 mps 738 mmHg 78%
    09:00 -1°C° 0 mm 4 mps 738 mmHg 76%
    10:00 -1°C° 0 mm 5 mps 737 mmHg 75%
    11:00 -2°C° 0 mm 6 mps 737 mmHg 73%
    12:00 -2°C° 0 mm 6 mps 737 mmHg 78%
    13:00 -2°C° 0 mm 6 mps 736 mmHg 83%
    14:00 -2°C° 0 mm 7 mps 736 mmHg 88%
    15:00 -2°C° 0.1 mm 6 mps 736 mmHg 84%
    16:00 -3°C° 0.1 mm 6 mps 736 mmHg 80%
    17:00 -2°C° 0.1 mm 5 mps 736 mmHg 76%
    18:00 -4°C° 0 mm 5 mps 737 mmHg 75%
    19:00 -4°C° 0 mm 5 mps 737 mmHg 74%
    20:00 -4°C° 0 mm 5 mps 738 mmHg 73%
    21:00 -4°C° 0 mm 6 mps 738 mmHg 76%
    22:00 -5°C° 0 mm 6 mps 738 mmHg 78%
    23:00 -5°C° 0 mm 6 mps 739 mmHg 80%

    Day after tomorrow, 23 January, Thursday

    Time Temperature Precipitation Wind Pressure Humidity
    00:00 -5°C° 0 mm 6 mps 740 mmHg 78%
    01:00 -6°C° 0 mm 7 mps 740 mmHg 76%
    02:00 -6°C° 0 mm 7 mps 741 mmHg 74%
    03:00 -6°C° 0 mm 7 mps 741 mmHg 70%
    04:00 -6°C° 0 mm 7 mps 741 mmHg 67%
    05:00 -7°C° 0 mm 7 mps 742 mmHg 64%
    06:00 -7°C° 0 mm 7 mps 742 mmHg 62%
    07:00 -7°C° 0 mm 7 mps 743 mmHg 59%
    08:00 -7°C° 0 mm 7 mps 744 mmHg 57%
    09:00 -7°C° 0 mm 7 mps 744 mmHg 55%
    10:00 -6°C° 0 mm 7 mps 745 mmHg 53%
    11:00 -6°C° 0 mm 7 mps 746 mmHg 51%
    12:00 -4°C° 0 mm 7 mps 746 mmHg 52%
    13:00 -5°C° 0 mm 8 mps 746 mmHg 53%
    14:00 -5°C° 0 mm 8 mps 746 mmHg 54%
    15:00 -4°C° 0 mm 7 mps 746 mmHg 57%
    16:00 -5°C° 0 mm 6 mps 747 mmHg 60%
    17:00 -5°C° 0 mm 5 mps 747 mmHg 63%
    18:00 -5°C° 0 mm 5 mps 747 mmHg 65%
    19:00 -4°C° 0 mm 4 mps 748 mmHg 67%
    20:00 -4°C° 0 mm 4 mps 748 mmHg 69%
    21:00 -4°C° 0 mm 4 mps 748 mmHg 69%
    22:00 -4°C° 0 mm 4 mps 749 mmHg 69%
    23:00 -4°C° 0 mm 4 mps 749 mmHg 68%

    24 January, Friday

    Time Temperature Precipitation Wind Pressure Humidity
    00:00 -4°C° 0 mm 4 mps 749 mmHg 72%
    01:00 -4°C° 0 mm 4 mps 748 mmHg 76%
    02:00 -4°C° 0 mm 4 mps 748 mmHg 80%
    03:00 -5°C° 0 mm 5 mps 748 mmHg 80%
    04:00 -4°C° 0 mm 5 mps 747 mmHg 80%
    05:00 -4°C° 0 mm 5 mps 747 mmHg 81%
    06:00 -4°C° 0 mm 5 mps 747 mmHg 80%
    07:00 -4°C° 0 mm 5 mps 746 mmHg 79%
    08:00 -4°C° 0 mm 5 mps 746 mmHg 78%
    09:00 -4°C° 0.1 mm 6 mps 746 mmHg 81%
    10:00 -4°C° 0.1 mm 6 mps 745 mmHg 84%
    11:00 -3°C° 0.1 mm 6 mps 745 mmHg 88%
    12:00 -3°C° 0 mm 6 mps 745 mmHg 87%
    13:00 -2°C° 0 mm 6 mps 745 mmHg 87%
    14:00 -1°C° 0 mm 6 mps 745 mmHg 87%
    15:00 0°C° 0 mm 5 mps 745 mmHg 89%
    16:00 -1°C° 0 mm 5 mps 745 mmHg 91%
    17:00 -1°C° 0 mm 5 mps 745 mmHg 93%
    18:00 -1°C° 0 mm 5 mps 745 mmHg 93%
    19:00 -1°C° 0 mm 5 mps 745 mmHg 94%
    20:00 -1°C° 0 mm 4 mps 745 mmHg 94%
    21:00 -1°C° 0 mm 4 mps 745 mmHg 93%
    22:00 -1°C° 0 mm 5 mps 745 mmHg 92%
    23:00 -1°C° 0 mm 5 mps 745 mmHg 91%

    25 January, Saturday

    Time Temperature Precipitation Wind Pressure Humidity
    00:00 -1°C° 0 mm 5 mps 745 mmHg 86%
    01:00 -2°C° 0 mm 5 mps 745 mmHg 82%
    02:00 -2°C° 0 mm 4 mps 744 mmHg 78%
    03:00 -2°C° 0 mm 5 mps 744 mmHg 77%
    04:00 -2°C° 0 mm 5 mps 744 mmHg 76%
    05:00 -4°C° 0 mm 5 mps 744 mmHg 75%
    06:00 -4°C° 0 mm 5 mps 744 mmHg 77%
    07:00 -4°C° 0 mm 5 mps 744 mmHg 78%
    08:00 -5°C° 0 mm 5 mps 743 mmHg 80%
    09:00 -4°C° 0 mm 5 mps 744 mmHg 77%
    10:00 -3°C° 0 mm 4 mps 744 mmHg 75%
    11:00 -2°C° 0 mm 4 mps 744 mmHg 73%
    12:00 -2°C° 0 mm 4 mps 744 mmHg 72%
    13:00 -1°C° 0 mm 4 mps 744 mmHg 72%
    14:00 -1°C° 0 mm 4 mps 744 mmHg 71%
    15:00 -1°C° 0 mm 4 mps 744 mmHg 73%
    16:00 -1°C° 0 mm 3 mps 744 mmHg 75%
    17:00 -1°C° 0 mm 3 mps 744 mmHg 77%
    18:00 -1°C° 0 mm 3 mps 744 mmHg 79%
    19:00 -1°C° 0 mm 3 mps 744 mmHg 81%
    20:00 -2°C° 0 mm 2 mps 744 mmHg 83%
    21:00 -2°C° 0 mm 2 mps 744 mmHg 83%
    22:00 -2°C° 0 mm 2 mps 744 mmHg 83%
    23:00 -2°C° 0 mm 2 mps 744 mmHg 82%

    26 January, Sunday

    Time Temperature Precipitation Wind Pressure Humidity
    00:00 -2°C° 0 mm 2 mps 744 mmHg 84%
    01:00 -2°C° 0 mm 2 mps 744 mmHg 85%
    02:00 -2°C° 0 mm 2 mps 743 mmHg 87%
    03:00 -2°C° 0.1 mm 2 mps 743 mmHg 89%
    04:00 -2°C° 0.1 mm 2 mps 743 mmHg 92%
    05:00 -2°C° 0.1 mm 2 mps 743 mmHg 94%
    06:00 -2°C° 0.1 mm 2 mps 744 mmHg 95%
    07:00 -1°C° 0.1 mm 2 mps 744 mmHg 95%
    08:00 -1°C° 0.1 mm 2 mps 744 mmHg 95%
    09:00 -1°C° 0 mm 2 mps 744 mmHg 95%
    10:00 -1°C° 0 mm 2 mps 745 mmHg 96%
    11:00 +1°C° 0 mm 2 mps 745 mmHg 96%
    12:00 +1°C° 0 mm 2 mps 745 mmHg 96%
    13:00 +1°C° 0 mm 2 mps 745 mmHg 95%
    14:00 0°C° 0 mm 3 mps 744 mmHg 95%
    15:00 0°C° 0 mm 3 mps 745 mmHg 94%
    16:00 -1°C° 0 mm 3 mps 745 mmHg 93%
    17:00 -1°C° 0 mm 3 mps 745 mmHg 92%
    18:00 -1°C° 0 mm 3 mps 745 mmHg 90%
    19:00 -1°C° 0 mm 3 mps 745 mmHg 88%
    20:00 -3°C° 0 mm 4 mps 745 mmHg 87%
    21:00 -3°C° 0 mm 4 mps 745 mmHg 89%
    22:00 -3°C° 0 mm 4 mps 745 mmHg 91%
    23:00 -4°C° 0 mm 4 mps 745 mmHg 93%
    Show more